This is the latest recevied weather packets stored in our database for station/object DF9PM-13. If no packets are shown the sender has not sent any weather packets the latest 10 day(s).
| Time | Temp. | Humidity | Pressure | Rain* | Wind** | Luminosity | Snow |
|---|---|---|---|---|---|---|---|
| 1777630783 | 22.78° C | 22% | 1026.7 hPa | - | - | - | - |
| 1777630483 | 21.67° C | 22% | 1026.6 hPa | - | - | - | - |
| 1777630183 | 21.67° C | 23% | 1026.8 hPa | - | - | - | - |
| 1777629882 | 22.22° C | 22% | 1026.8 hPa | - | - | - | - |
| 1777629583 | 22.22° C | 22% | 1026.8 hPa | - | - | - | - |
| 1777629283 | 21.67° C | 23% | 1026.9 hPa | - | - | - | - |
| 1777628982 | 22.22° C | 23% | 1027 hPa | - | - | - | - |
| 1777628682 | 21.67° C | 23% | 1027 hPa | - | - | - | - |
| 1777628382 | 20.56° C | 24% | 1027 hPa | - | - | - | - |
| 1777628082 | 21.67° C | 23% | 1027 hPa | - | - | - | - |
| 1777627782 | 21.11° C | 24% | 1027.1 hPa | - | - | - | - |
| 1777627482 | 18.89° C | 25% | 1027.2 hPa | - | - | - | - |
| 1777627182 | 20.56° C | 24% | 1027.3 hPa | - | - | - | - |
| 1777626882 | 19.44° C | 26% | 1027.4 hPa | - | - | - | - |
| 1777626582 | 18.89° C | 24% | 1027.4 hPa | - | - | - | - |
| 1777626282 | 20° C | 26% | 1027.4 hPa | - | - | - | - |
| 1777625982 | 18.89° C | 26% | 1027.4 hPa | - | - | - | - |
| 1777625682 | 20.56° C | 25% | 1027.4 hPa | - | - | - | - |
| 1777625382 | 18.89° C | 26% | 1027.5 hPa | - | - | - | - |
| 1777625082 | 20° C | 26% | 1027.5 hPa | - | - | - | - |
| 1777624782 | 18.33° C | 27% | 1027.5 hPa | - | - | - | - |
| 1777624482 | 18.89° C | 27% | 1027.6 hPa | - | - | - | - |
| 1777624181 | 19.44° C | 26% | 1027.5 hPa | - | - | - | - |
| 1777623881 | 18.33° C | 27% | 1027.6 hPa | - | - | - | - |
| 1777623581 | 17.78° C | 27% | 1027.6 hPa | - | - | - | - |
* Rain since midnight (hover to see other rain measurements)
** Current wind speed in m/s (hover to see current wind gust speed)